GFSGL_850_thetae_102.txt.gz
Theta_e
313 313 314 314 314 314 314 313 312 311 311 311 311 311 312 313 314 316 316 317 319 322 324 326 327 327 325 324 325 326 326 326 326 326 328 330 337 337 334 334 334 333 335
312 311 311 311 311 310 310 310 310 309 309 309 309 309 309 310 311 311 312 315 317 318 320 323 325 325 325 323 324 323 324 325 326 328 329 331 334 335 334 334 332 337 335
311 310 310 310 310 309 309 308 308 307 307 307 306 306 306 307 307 307 309 310 310 315 317 320 322 323 323 323 323 324 322 324 325 325 327 329 332 335 335 334 333 332 330
310 309 309 309 309 308 307 307 306 305 305 305 304 304 304 303 303 304 305 306 308 310 314 316 318 322 323 323 322 323 322 323 323 324 327 326 332 332 337 336 334 334 330
308 308 308 308 307 307 306 306 305 306 305 304 303 303 303 303 303 303 303 303 306 306 308 314 316 317 322 322 322 321 321 321 322 323 325 326 328 333 335 334 335 336 333
308 308 307 307 307 307 306 306 305 305 304 303 305 305 304 302 303 302 301 301 302 303 304 306 310 314 318 320 321 321 321 321 322 323 323 325 328 332 333 334 333 334 336
307 307 307 307 307 306 306 306 305 306 304 304 306 303 304 302 302 301 301 301 302 303 304 305 308 310 314 318 320 319 318 317 317 319 321 322 325 329 333 334 334 335 335
306 306 307 307 307 307 307 306 305 304 303 304 303 304 304 303 302 302 301 302 302 303 304 304 305 307 310 314 319 321 320 319 319 316 314 315 317 329 333 333 331 327 331
305 306 306 305 305 307 306 305 304 305 304 303 303 305 304 303 303 303 303 302 303 304 305 306 307 309 308 312 316 319 321 321 320 321 318 314 318 329 333 332 327 329 332
302 303 303 303 304 306 306 305 305 305 304 303 304 304 304 305 306 305 305 304 305 306 307 309 311 310 311 309 313 317 318 318 319 321 320 322 323 325 330 329 329 330 329
304 306 306 303 304 306 305 304 305 305 303 303 304 306 307 307 307 308 308 308 308 308 308 311 315 315 312 309 314 315 317 318 318 320 323 324 326 326 328 328 329 330 330
304 306 304 304 307 305 304 306 306 305 305 306 307 308 308 310 311 310 310 311 311 309 311 313 315 316 315 311 312 312 315 318 321 324 325 326 327 329 328 329 329 328 329
304 306 306 307 307 305 305 306 305 306 307 307 307 309 309 312 314 313 314 315 315 314 314 315 316 315 316 316 317 317 316 320 322 325 326 327 327 328 329 328 328 330 329
304 306 306 307 306 305 306 306 307 307 308 308 307 307 310 311 314 314 314 314 314 315 314 315 316 315 317 315 316 316 316 322 324 325 327 327 327 326 327 328 329 329 326
303 305 305 306 306 305 307 307 308 308 308 308 308 309 310 313 314 315 314 314 315 315 315 315 314 315 316 316 316 319 323 324 325 326 326 325 325 326 327 327 328 326 321
301 303 304 306 306 306 305 307 308 309 309 309 309 309 313 313 315 316 316 316 314 313 314 316 317 318 318 319 320 322 323 323 322 323 325 321 322 319 319 317 317 320 320
298 300 302 303 304 305 304 304 306 307 308 310 310 310 315 315 317 314 314 313 315 312 313 314 314 314 314 315 316 318 318 315 316 317 319 317 315 315 317 314 320 321 318
295 297 299 299 300 302 302 303 300 301 302 304 307 309 313 316 316 315 315 315 317 317 314 314 315 316 316 315 313 313 317 317 313 313 315 314 315 314 318 323 322 323 324
292 294 296 296 298 298 300 301 303 301 300 301 304 309 310 314 316 317 318 319 318 318 317 316 316 317 318 320 319 318 315 319 319 317 319 321 322 320 319 316 322 328 327
291 291 291 293 296 298 298 299 300 301 299 299 302 304 308 312 313 315 317 318 318 319 318 317 319 319 315 314 319 320 322 322 323 323 323 324 324 325 326 328 328 328 328
291 291 290 292 292 294 294 295 296 296 296 297 299 300 304 305 309 309 312 315 314 316 318 318 317 319 317 317 316 316 318 319 322 324 324 323 323 323 326 327 328 329 329
290 290 290 291 291 291 290 292 293 292 295 296 298 300 303 303 306 308 310 311 312 313 315 318 319 319 320 319 318 318 319 319 319 321 323 324 325 324 323 323 325 327 328
288 289 289 290 289 290 291 291 291 290 290 293 295 296 300 301 302 305 308 310 311 312 313 313 315 318 320 321 320 319 319 319 320 321 322 324 324 324 324 324 324 324 325
287 288 288 288 288 289 289 290 290 290 289 290 290 293 292 296 300 303 304 306 308 311 312 312 312 313 315 318 320 320 320 319 319 320 320 321 322 322 322 323 324 325 325
286 286 286 286 287 287 287 288 288 288 289 289 288 288 290 292 294 297 301 305 306 308 311 311 312 313 314 313 316 318 318 318 319 319 319 319 319 320 319 319 319 321 324
286 285 284 284 284 284 284 285 286 286 287 287 287 286 287 288 291 292 294 297 300 304 307 310 311 311 312 314 314 314 316 317 317 317 319 320 320 319 319 318 318 317 318

GFSGL_850_thetae_105.txt.gz
Theta_e
317 317 317 317 317 317 316 316 316 315 315 314 314 314 314 314 314 314 315 315 317 318 319 320 324 326 327 328 330 329 327 326 327 327 325 325 324 325 334 337 338 337 334
316 316 316 316 316 315 315 314 314 313 312 312 311 311 310 310 310 310 311 311 312 313 314 317 319 321 323 325 326 328 329 328 326 326 328 327 327 325 329 333 334 338 337
315 315 315 315 314 314 314 313 312 311 310 308 307 307 307 306 306 307 307 307 307 308 309 312 314 316 319 323 324 326 327 327 327 327 327 328 327 326 328 331 336 333 335
315 314 314 314 313 312 312 311 309 308 308 308 307 307 306 307 306 306 306 306 306 305 305 308 309 312 316 318 321 324 325 325 327 326 325 324 324 326 327 329 333 336 335
314 313 313 312 312 311 310 309 309 308 308 308 307 307 307 305 306 306 306 305 304 304 304 305 306 308 310 314 317 320 323 325 324 324 326 326 327 326 326 328 331 333 337
312 312 312 311 311 310 310 309 308 308 307 308 307 307 306 307 309 305 306 304 303 303 303 303 304 305 306 308 313 316 318 321 325 323 324 323 323 326 325 327 328 334 334
311 312 311 310 310 310 309 309 309 309 309 308 307 307 305 305 305 305 304 303 303 303 302 302 303 304 306 306 308 312 315 318 322 323 322 323 324 325 326 326 327 332 333
310 309 310 310 310 309 309 309 309 308 307 307 306 305 305 305 306 306 305 305 304 303 303 302 303 304 306 307 308 310 313 317 319 321 322 321 321 321 321 320 320 330 332
307 307 308 308 308 308 307 307 307 307 307 306 305 305 306 307 307 307 307 306 304 304 304 304 305 305 306 307 307 308 309 314 318 320 320 320 319 318 318 320 317 331 335
302 302 304 305 306 306 306 307 305 306 306 306 308 308 307 307 308 309 309 307 306 306 307 307 307 307 307 308 308 308 310 311 317 322 320 319 320 318 319 315 316 334 331
300 301 302 303 304 305 306 306 306 306 307 308 308 309 309 310 311 312 313 312 311 310 310 310 310 311 312 313 313 311 310 310 316 319 320 320 321 320 318 319 320 326 330
301 304 305 304 305 305 305 306 305 307 309 310 309 309 309 311 312 314 314 314 314 314 313 314 313 313 314 314 313 313 311 310 316 316 317 317 317 318 324 324 324 323 329
302 304 305 303 303 305 305 306 308 308 309 309 309 309 308 311 314 314 314 315 314 314 314 314 314 315 315 314 315 312 310 312 314 315 315 318 318 323 325 326 325 327 328
301 302 304 303 306 305 304 305 307 309 309 309 309 308 308 310 312 312 314 314 313 314 315 315 315 315 315 316 316 315 311 311 312 315 316 320 325 324 324 327 327 329 330
299 301 303 305 307 303 304 303 304 306 306 306 309 308 307 309 314 315 314 314 314 314 315 316 317 315 314 315 316 317 317 317 316 317 320 321 324 325 327 328 329 331 330
297 299 301 303 303 302 303 304 303 304 305 306 306 306 309 312 314 313 313 314 313 312 314 315 316 315 314 316 316 316 316 319 322 322 317 324 325 326 327 327 328 328 326
294 296 299 299 301 298 302 302 305 303 303 304 304 307 312 314 315 314 313 316 315 315 314 314 315 318 319 320 320 321 322 322 322 323 324 324 324 325 328 327 327 328 323
295 294 295 296 297 299 298 299 300 297 298 301 303 306 309 315 316 318 318 318 317 317 314 316 316 314 315 316 317 319 318 320 319 318 317 317 317 317 319 320 318 317 319
295 294 294 294 295 296 296 294 297 299 297 295 298 304 309 312 316 317 318 318 317 318 317 318 316 315 314 312 314 313 313 314 315 317 315 316 315 315 313 312 313 314 315
294 294 294 295 296 295 293 294 294 295 297 297 294 295 304 307 311 314 315 317 318 316 318 318 318 317 320 320 317 316 317 316 317 320 317 315 313 315 314 316 315 313 315
293 294 293 294 294 295 294 294 293 292 293 294 295 296 295 297 302 306 310 313 315 316 316 317 318 319 319 317 317 321 321 319 318 322 321 321 320 316 314 313 317 319 325
292 292 293 293 293 293 293 294 294 293 293 292 293 296 299 297 300 302 305 308 310 312 312 309 318 319 319 319 319 319 319 322 323 322 322 323 324 322 323 324 324 326 327
291 291 291 291 291 292 292 292 292 292 293 293 291 291 293 295 296 299 301 303 305 309 312 311 312 318 319 319 320 319 320 321 322 324 324 324 324 323 324 323 325 328 327
290 290 289 289 289 290 290 291 291 291 291 291 291 290 289 289 292 295 298 301 303 306 308 310 311 313 316 318 319 320 320 320 321 321 323 325 323 323 323 324 324 326 327
290 289 289 287 288 288 288 288 289 289 290 290 290 289 289 289 288 289 293 296 299 303 304 306 309 310 312 314 316 318 319 319 320 320 320 321 321 321 321 324 324 325 325
289 289 288 286 285 285 285 286 287 287 288 288 288 288 288 288 287 287 288 290 293 297 299 302 304 308 308 310 313 315 318 318 319 319 320 321 321 320 320 320 320 323 325

GFSGL_850_thetae_108.txt.gz
Theta_e
318 318 317 316 316 317 317 317 317 316 315 314 313 313 312 312 312 311 311 312 312 313 313 315 317 318 320 322 324 327 329 327 331 329 327 327 329 328 327 328 334 336 337
317 317 317 317 317 317 316 316 315 314 312 312 311 310 308 308 308 308 307 307 307 308 309 310 311 313 314 317 318 322 324 326 327 329 329 325 327 327 325 325 326 329 329
316 317 317 317 316 315 314 313 312 312 310 308 308 308 308 308 307 307 306 306 306 306 306 306 306 306 307 310 313 316 319 322 325 325 327 329 327 325 327 326 326 323 326
316 316 316 315 315 314 313 312 311 310 309 308 308 308 308 308 307 307 307 306 307 306 306 306 305 304 306 306 309 310 313 317 321 324 325 326 329 327 327 327 325 324 326
314 315 315 314 313 312 312 311 310 310 309 309 309 309 308 307 307 308 306 308 307 305 305 306 304 304 305 304 305 306 309 311 315 320 324 326 326 328 327 325 326 326 328
313 314 314 313 312 311 310 310 310 309 310 310 309 307 307 307 306 305 305 305 305 305 306 305 304 304 304 303 304 304 305 306 307 310 317 323 325 325 325 324 326 327 328
310 312 312 312 311 311 310 310 310 308 308 308 308 308 307 307 307 307 307 307 307 307 307 307 306 305 304 303 303 303 305 307 307 308 312 319 323 324 325 326 327 326 325
308 309 310 309 310 309 309 309 308 307 307 307 307 307 309 309 309 309 309 308 308 308 308 307 306 305 305 304 305 304 305 306 307 311 312 317 320 323 323 324 324 324 325
305 305 305 305 306 307 307 307 307 306 307 306 308 310 310 311 311 310 311 311 311 311 311 312 311 309 309 307 306 305 306 306 308 309 312 315 319 320 322 323 324 323 321
300 302 303 303 304 305 306 306 306 306 307 308 310 310 310 310 311 310 311 311 311 312 312 312 313 313 313 312 309 308 307 309 309 309 309 311 315 319 321 323 322 319 317
303 304 304 305 305 305 306 306 307 307 308 309 310 310 310 310 309 311 314 311 308 308 310 311 312 314 314 315 314 312 312 313 312 310 309 310 314 319 320 321 320 317 318
303 305 304 304 304 304 305 305 307 307 308 309 309 310 310 308 309 313 313 313 313 308 310 313 314 314 314 314 314 314 313 313 313 310 310 313 319 320 320 319 319 318 318
303 304 304 305 304 304 304 305 306 306 307 307 307 308 308 309 313 313 313 312 313 314 314 314 314 314 314 314 313 314 313 313 312 311 311 315 319 318 317 317 317 318 318
301 301 303 305 304 302 302 304 304 305 305 305 305 305 305 309 312 313 314 314 313 313 314 315 315 316 315 315 313 315 315 314 313 311 313 314 315 316 314 318 319 322 322
298 298 301 303 299 299 300 303 303 302 302 303 303 304 304 307 313 314 315 316 315 315 313 315 315 315 315 315 315 315 316 314 311 312 314 313 314 315 319 322 322 322 325
296 296 297 299 300 301 301 304 303 302 302 303 302 302 304 308 314 315 317 317 315 316 314 314 317 318 315 314 316 317 317 317 314 312 313 316 317 320 322 322 323 325 328
296 295 296 297 297 299 300 301 303 305 304 302 301 301 306 309 314 318 317 316 316 316 315 314 313 317 319 319 317 316 317 319 318 317 317 318 321 321 322 326 327 328 327
296 295 296 296 296 296 297 297 298 298 301 303 302 302 307 309 312 315 316 318 316 316 312 313 314 314 315 313 319 318 319 320 321 320 318 318 321 325 324 325 327 326 327
295 294 295 296 296 296 296 296 295 295 295 297 302 304 305 308 309 310 314 314 311 312 312 310 311 315 317 315 312 314 314 315 315 317 317 319 321 324 326 326 326 326 324
295 294 295 295 295 295 296 296 296 295 294 294 295 298 302 307 309 307 307 310 310 311 314 314 313 312 313 318 318 317 314 317 315 315 315 315 315 318 319 323 324 323 322
293 293 294 293 294 293 294 294 294 294 295 293 292 292 296 297 299 299 301 305 308 307 309 314 312 315 307 315 318 319 319 319 320 319 315 314 314 315 314 315 315 314 313
292 292 292 292 292 292 292 293 292 293 293 293 292 291 291 293 295 296 297 301 304 307 305 305 308 309 312 305 308 314 318 319 319 320 321 320 320 319 316 317 316 314 312
291 291 291 290 290 290 291 291 291 291 292 291 291 291 290 290 289 292 294 296 300 304 307 306 307 309 311 305 307 310 314 318 317 317 321 321 319 319 320 323 324 326 325
291 290 289 289 288 289 288 289 289 289 290 290 289 290 290 289 288 288 289 291 295 298 302 305 306 308 311 313 310 309 313 318 319 320 321 322 321 321 320 319 323 325 325
290 290 289 288 287 287 287 287 287 287 288 288 288 288 288 288 287 287 287 288 289 291 295 300 303 304 306 310 311 311 313 317 318 319 321 319 322 323 324 325 322 321 323
290 289 288 287 286 285 286 286 285 284 285 286 286 286 287 287 286 286 286 286 287 288 290 292 296 301 304 306 310 313 314 317 319 319 320 321 321 321 322 324 324 324 321

GFSGL_850_thetae_114.txt.gz
Theta_e
317 316 315 315 315 315 314 315 315 314 314 313 311 309 308 309 308 308 307 307 307 307 307 307 306 306 306 307 307 307 308 309 309 311 313 316 319 321 322 323 322 322 329
316 316 316 316 315 314 315 314 314 313 311 310 310 309 309 309 309 308 307 307 307 307 307 307 307 306 307 307 307 305 305 306 305 304 306 308 312 316 319 321 322 325 328
314 315 316 316 315 315 314 313 312 310 310 310 309 309 309 309 307 307 307 307 307 307 306 306 306 305 306 307 306 305 305 305 305 304 305 305 308 310 314 319 322 324 325
311 313 314 314 314 313 312 311 310 310 310 310 310 309 308 307 307 308 309 309 308 308 308 308 307 307 307 307 307 307 306 306 306 305 304 305 306 308 310 312 316 321 324
309 311 314 314 313 312 311 311 311 310 310 310 309 308 307 309 310 310 309 309 309 309 309 309 310 310 310 310 309 309 307 306 306 305 305 304 304 305 306 308 313 322 323
311 312 313 312 311 311 311 311 310 310 309 308 307 308 309 310 310 310 310 309 309 310 312 312 312 313 313 312 311 311 311 307 306 305 305 304 304 304 304 305 307 318 321
310 310 311 311 310 310 310 310 309 308 307 306 308 309 309 310 308 309 309 310 311 312 312 312 312 313 314 311 311 311 311 311 310 307 305 304 304 304 304 305 306 310 315
308 308 308 308 309 309 309 308 308 307 306 307 308 309 309 309 308 306 309 311 311 313 314 315 315 314 314 314 309 309 311 312 312 311 308 308 305 304 304 306 307 307 311
307 307 307 306 306 306 306 305 306 306 306 307 308 308 308 308 307 308 311 312 313 315 315 314 314 315 314 314 311 309 309 312 312 312 312 310 308 306 305 305 307 311 317
306 306 306 305 304 304 304 304 305 306 306 307 307 307 306 306 306 310 312 313 314 315 315 315 316 316 315 315 312 309 309 310 312 312 312 313 311 310 309 306 308 310 313
302 304 304 304 304 304 304 304 305 305 306 306 306 306 305 305 308 311 313 313 314 315 314 315 315 315 314 314 315 312 310 310 311 312 312 312 312 312 312 310 309 308 312
300 302 304 304 303 303 304 304 304 305 304 304 304 305 305 305 309 312 314 314 314 315 314 315 314 315 315 314 313 315 315 311 310 309 310 311 312 312 312 312 310 309 312
299 301 302 302 302 302 303 304 305 304 303 302 302 302 303 305 309 312 314 315 315 316 314 314 315 316 316 315 314 314 314 314 313 311 311 311 311 312 312 312 311 309 310
297 298 300 301 302 302 302 302 303 303 303 301 300 301 301 304 307 311 313 315 316 315 315 313 314 314 315 314 315 317 316 314 313 313 312 311 310 310 311 310 311 312 311
295 296 296 297 300 300 299 299 299 299 298 296 298 299 300 303 306 307 307 311 314 313 314 315 314 315 314 314 315 315 314 316 316 312 310 310 311 312 313 314 316 315 315
295 296 296 296 296 296 295 295 295 295 294 296 297 299 301 302 306 308 309 312 313 315 314 313 311 312 310 311 312 314 315 316 316 315 312 312 313 313 314 314 316 320 319
294 295 296 296 295 296 295 295 294 293 293 294 296 298 300 302 305 308 309 309 311 312 311 309 307 307 306 308 306 309 313 315 315 315 316 312 313 313 313 315 317 318 317
294 294 295 294 294 294 293 294 294 292 292 292 293 296 297 301 303 305 307 309 309 308 306 304 303 304 303 306 306 311 314 316 315 315 316 317 316 316 317 317 318 321 321
293 293 293 293 293 293 292 292 292 291 291 290 291 292 295 296 299 301 302 304 303 303 303 302 301 303 302 304 306 308 312 312 314 315 316 316 317 318 318 320 321 322 321
292 292 292 292 292 292 291 291 291 290 290 289 289 288 289 293 294 294 296 296 297 297 299 301 300 302 301 302 306 307 309 313 314 315 315 315 317 318 321 321 322 321 321
291 290 291 291 291 291 290 290 290 289 288 289 288 287 287 288 287 287 288 290 291 292 293 294 297 299 301 302 304 306 307 309 311 314 316 315 315 317 321 320 322 322 324
289 289 289 289 289 289 288 289 288 288 287 287 287 287 286 287 286 286 287 287 288 288 289 290 291 293 294 297 300 303 307 310 311 314 313 315 316 316 320 323 323 323 323
288 288 288 288 287 287 287 287 287 286 286 286 286 286 286 286 286 286 286 286 287 287 287 288 288 290 292 293 295 299 301 307 310 312 312 315 317 316 318 322 323 323 322
288 287 287 287 287 286 286 286 286 286 285 285 285 285 285 285 285 285 286 286 286 286 286 287 288 288 289 290 292 294 298 304 309 312 314 314 316 317 319 322 321 322 320
288 287 287 286 286 285 286 286 285 285 285 285 285 285 285 285 285 285 285 286 286 286 287 286 287 288 289 289 290 291 292 300 307 311 314 314 317 316 316 319 320 320 320
288 287 287 286 285 285 285 285 285 285 285 285 285 285 284 284 285 285 285 285 286 286 287 287 287 287 288 288 289 290 291 293 303 308 314 313 316 319 319 318 318 317 318

GFSGL_850_thetae_117.txt.gz
Theta_e
316 315 314 313 313 313 313 313 314 313 313 312 311 311 310 309 309 309 309 308 308 307 307 307 307 307 307 307 306 306 306 306 307 305 305 306 306 307 308 312 316 319 321
316 315 315 315 314 314 314 314 313 312 311 311 311 309 309 309 308 308 307 307 307 307 308 307 307 306 306 306 305 306 307 307 306 305 305 305 305 305 305 307 309 310 315
314 314 314 314 314 314 313 312 311 311 311 311 310 310 310 309 307 307 308 309 308 308 308 309 309 309 309 309 308 308 308 307 307 306 306 306 306 306 305 306 308 311 310
312 311 312 313 314 314 313 312 311 311 311 311 310 310 309 307 308 309 309 309 309 309 309 309 310 311 311 312 311 310 310 309 309 308 307 306 305 306 306 305 304 305 306
309 309 311 312 313 313 312 311 311 311 311 310 310 308 307 309 309 310 309 310 310 310 311 312 312 312 313 312 311 312 312 310 310 309 308 306 305 306 307 305 304 304 305
309 310 311 312 312 311 311 311 311 310 310 309 307 307 308 309 309 308 308 308 310 311 312 313 314 314 314 314 314 314 313 310 309 309 308 307 307 306 307 304 304 304 304
309 309 310 310 311 311 310 310 310 309 308 307 307 308 308 308 308 308 307 310 311 312 313 315 315 315 314 314 314 313 313 312 309 309 309 309 310 310 307 306 304 304 304
309 309 309 308 308 308 308 308 307 307 306 306 307 308 308 307 307 307 307 311 312 313 314 315 314 315 315 314 313 312 312 313 312 310 310 310 311 311 309 307 305 304 305
305 306 308 308 307 306 306 306 306 306 306 305 306 306 307 307 306 306 309 312 313 314 315 314 314 314 315 314 314 313 314 313 313 311 310 311 312 311 311 309 307 305 306
303 305 307 305 303 303 304 304 305 305 305 305 305 305 305 306 305 307 310 312 314 315 315 314 314 315 314 314 314 313 312 313 313 311 310 310 311 311 312 311 309 307 306
302 305 306 306 305 304 304 304 304 304 303 303 302 303 304 304 305 309 312 313 314 314 314 314 315 314 315 315 314 314 314 313 314 310 308 309 310 312 312 312 311 310 308
302 303 304 304 304 303 303 304 304 304 304 304 303 303 302 304 307 310 312 312 313 312 312 312 313 314 314 315 315 315 315 314 314 312 310 310 310 311 313 312 312 311 311
299 301 303 303 302 302 302 302 303 302 303 303 302 301 301 304 308 309 311 314 313 313 312 312 313 314 314 315 315 315 315 314 311 313 313 312 311 310 311 311 310 311 312
297 296 297 301 301 299 299 300 300 300 301 300 300 299 301 304 307 309 310 312 313 313 312 313 313 314 313 314 315 314 314 311 311 313 312 311 310 309 308 308 309 311 311
296 296 296 296 295 296 297 297 297 295 295 297 297 297 299 302 302 304 306 309 309 310 311 312 313 313 313 313 314 313 314 313 312 314 312 311 311 310 311 311 310 310 310
295 296 296 295 296 295 295 294 293 292 292 292 293 296 297 299 301 302 305 306 307 308 309 310 310 309 309 308 309 312 312 313 312 312 313 312 312 313 313 314 314 313 311
295 295 295 295 296 294 294 294 293 292 291 290 290 293 296 299 302 302 304 305 306 308 306 306 307 306 304 305 306 305 305 307 310 310 312 314 313 312 313 314 316 317 315
293 294 294 294 294 293 293 293 291 291 290 290 289 290 293 295 299 301 303 303 304 304 303 303 302 302 303 303 304 305 306 307 311 313 313 315 315 316 316 317 317 317 318
293 292 293 293 292 292 292 291 291 290 289 289 288 289 289 290 292 295 298 299 297 297 296 297 297 298 301 301 303 304 305 305 307 311 311 313 316 317 318 318 318 318 318
291 291 291 292 291 291 291 290 289 288 288 288 287 286 287 288 289 289 289 290 291 290 290 290 292 293 296 298 300 304 305 307 309 308 309 311 314 316 317 319 319 319 319
290 289 290 290 290 289 289 289 288 287 287 287 286 286 286 286 286 287 287 287 288 288 288 288 288 290 292 293 295 300 302 304 307 307 306 310 313 317 319 320 317 321 321
288 288 288 288 288 287 287 287 286 286 286 286 285 285 285 286 286 286 286 286 286 286 287 287 287 288 288 289 291 293 297 301 306 309 308 309 313 315 318 321 321 321 320
288 287 287 287 286 286 286 286 286 286 285 285 285 285 285 285 285 285 285 286 286 286 287 287 287 287 288 288 289 290 291 296 302 304 309 308 312 315 319 321 321 321 321
287 287 287 286 286 286 286 286 286 286 285 285 285 285 285 285 285 285 285 286 286 286 287 287 287 287 287 287 287 289 290 292 299 305 309 311 312 315 318 320 322 322 322
287 286 286 286 285 285 285 285 285 285 285 285 285 285 285 284 285 285 286 286 286 286 286 287 287 287 287 287 287 288 290 291 294 303 308 310 312 314 318 318 319 320 320
287 287 286 285 285 285 285 285 284 284 284 284 284 284 284 284 284 284 285 285 286 286 286 287 287 287 287 287 287 287 288 290 291 297 306 310 310 314 317 318 318 318 320

GFSGL_850_thetae_120.txt.gz
Theta_e
316 315 314 314 313 313 313 312 312 312 312 312 312 312 311 309 309 309 308 308 307 307 308 308 308 308 308 307 307 307 306 306 305 306 306 307 307 307 307 307 307 307 307
315 314 314 313 313 313 312 312 313 313 312 311 311 311 310 310 309 308 307 307 309 309 309 308 309 309 311 311 311 311 310 310 309 308 308 309 309 309 308 308 307 307 306
314 313 312 312 312 312 312 313 313 312 311 311 311 310 310 309 308 307 309 309 309 309 309 310 310 311 313 313 312 312 312 312 312 310 309 310 310 310 310 309 309 307 306
313 313 312 311 311 312 313 313 312 311 311 311 310 310 309 307 307 309 309 309 309 310 310 311 312 313 313 314 313 314 313 312 312 311 309 308 310 311 309 310 309 308 306
312 310 309 310 311 312 312 312 311 311 310 310 310 309 307 307 308 308 309 309 308 309 312 312 313 314 315 314 314 313 312 310 310 310 310 309 307 309 310 310 310 308 306
309 309 310 310 311 311 311 311 310 310 310 309 308 307 307 308 308 308 309 309 308 310 312 313 313 315 314 314 314 313 312 310 310 309 308 308 308 308 310 310 310 308 305
308 308 309 309 309 309 309 309 309 309 308 307 307 307 307 308 308 308 308 308 307 311 312 313 315 314 314 313 314 314 314 313 313 312 310 310 309 308 309 310 310 309 307
307 306 306 307 308 308 307 307 306 307 307 306 306 306 305 306 307 307 307 307 310 312 313 314 314 314 314 312 313 314 314 314 313 312 312 312 311 310 309 310 311 309 308
303 303 305 306 307 308 307 305 305 306 305 305 304 304 304 305 306 306 307 308 311 314 314 315 315 314 314 314 312 314 314 313 314 313 313 313 310 310 309 309 310 308 308
300 302 305 306 305 305 304 304 305 305 305 304 304 303 303 304 305 305 306 309 313 313 315 314 314 313 314 313 313 313 313 314 314 314 313 313 311 309 309 309 310 309 308
301 303 305 306 306 305 304 304 305 305 304 304 303 303 303 303 303 305 308 311 313 314 315 314 313 313 313 313 312 311 312 313 314 314 314 312 311 309 309 310 311 311 311
301 303 303 304 304 303 303 303 303 304 303 303 304 303 301 303 305 306 308 311 313 313 313 312 312 312 312 312 312 313 314 313 312 313 314 313 311 310 310 310 311 312 312
298 300 302 302 302 301 301 301 300 301 302 302 302 301 301 303 305 306 308 309 311 311 311 311 312 311 313 313 312 313 312 312 312 311 311 311 310 310 310 309 309 311 311
297 296 297 299 298 299 298 298 299 300 300 300 300 300 300 301 304 305 306 308 309 310 310 311 311 311 311 312 312 311 311 308 306 308 310 310 310 310 310 309 309 309 309
296 296 296 296 295 295 295 294 293 293 293 295 296 297 299 300 301 302 302 305 307 308 309 309 309 310 312 312 311 310 309 309 310 309 310 311 311 310 311 311 311 310 310
295 296 295 295 296 294 294 293 292 291 291 291 293 294 296 297 299 301 303 303 305 306 306 307 305 306 306 307 308 308 308 307 308 309 308 308 311 311 311 312 312 313 313
294 294 294 294 294 293 294 293 291 291 290 289 289 291 293 293 296 299 301 302 303 303 302 300 297 299 302 301 303 304 305 304 305 305 305 307 309 312 313 314 316 316 313
293 293 293 293 293 292 292 291 291 290 289 288 288 288 289 289 291 293 297 299 300 297 296 294 293 294 297 298 298 302 306 306 306 304 304 304 306 309 313 315 316 316 313
291 292 292 292 291 291 291 290 289 288 288 287 288 287 288 288 288 289 290 291 291 290 289 290 289 290 291 293 294 295 300 304 303 302 302 303 305 308 312 315 317 318 317
290 290 290 290 290 290 289 288 287 287 287 286 287 287 287 288 289 288 288 288 288 287 288 288 288 288 289 290 291 292 295 301 305 304 302 302 304 306 312 315 317 319 317
288 289 288 288 288 287 287 286 286 286 286 286 285 286 286 286 286 287 286 286 287 287 287 287 287 287 288 288 289 290 291 294 301 303 303 304 307 308 312 316 318 317 319
287 287 287 287 286 286 286 286 286 286 286 286 286 286 286 286 286 286 286 286 286 286 286 287 287 287 287 287 287 288 289 290 296 303 304 309 310 310 314 318 320 321 319
287 287 286 286 286 286 286 286 285 285 285 285 285 285 285 285 286 286 286 286 286 286 287 287 287 287 287 287 287 287 288 289 290 297 301 304 308 309 315 320 321 321 320
286 286 286 286 285 285 285 285 285 285 284 284 284 285 284 285 285 285 286 286 286 286 287 287 287 286 287 287 287 287 288 288 290 292 300 303 305 309 313 318 319 320 320
286 286 286 285 285 285 284 284 284 284 284 284 283 283 284 284 284 284 285 285 286 286 286 286 286 287 287 287 287 287 288 289 289 290 297 302 306 310 312 313 314 314 319
286 285 285 285 284 284 284 284 284 284 284 283 283 283 283 283 284 284 284 284 285 285 285 286 286 287 287 287 287 288 288 289 290 290 291 299 303 308 310 314 314 313 312

GFSGL_850_thetae_123.txt.gz
Theta_e
326 321 319 316 314 314 313 313 312 312 312 312 312 312 312 312 312 311 311 310 308 309 309 309 309 310 310 311 311 311 311 312 311 311 312 312 311 311 311 310 310 311 310
315 314 314 313 313 313 312 312 312 312 312 312 312 312 312 312 311 311 310 309 309 309 309 310 310 310 311 311 311 312 311 311 312 312 311 311 311 312 310 311 310 310 310
314 314 313 313 312 312 312 312 312 312 312 312 312 312 312 311 310 309 308 309 309 309 309 308 310 311 312 312 313 313 313 313 312 310 310 311 310 310 311 310 310 311 310
314 313 312 312 312 311 312 312 312 312 312 312 311 311 311 310 309 308 309 308 309 309 309 309 312 312 312 313 314 314 314 313 312 311 311 310 311 312 311 311 311 312 311
313 311 310 310 310 311 312 312 312 311 311 311 310 310 309 308 308 308 308 308 309 309 308 311 312 312 313 314 313 313 313 313 313 313 313 313 311 310 311 311 310 311 311
310 309 309 309 310 310 310 310 310 310 309 309 309 308 307 307 308 308 308 308 308 307 309 312 312 314 314 314 314 313 312 312 313 314 313 313 313 311 310 310 309 309 310
308 308 308 308 308 308 308 308 308 308 308 308 307 307 306 306 305 306 307 308 308 307 311 313 314 314 315 313 314 314 315 315 315 313 313 313 312 311 311 309 309 309 309
305 304 304 305 306 307 307 307 307 306 306 306 306 305 305 305 304 305 307 307 307 308 312 314 314 314 313 313 313 314 315 314 314 314 312 312 312 311 311 309 308 308 309
301 301 302 304 305 305 305 304 304 305 305 305 305 304 304 304 304 304 306 306 307 310 313 313 313 312 312 313 313 313 314 314 314 314 314 314 314 312 312 308 307 308 309
300 301 303 305 306 305 304 304 305 305 304 304 304 304 304 304 304 303 305 306 310 312 313 313 313 312 312 312 312 312 313 312 312 314 314 314 314 313 312 311 309 307 308
301 302 304 304 304 304 304 304 304 304 304 303 303 302 302 302 303 303 304 307 311 312 312 312 312 312 312 312 312 310 309 309 310 311 312 312 312 312 312 311 310 308 308
300 302 302 302 301 302 302 303 303 303 303 303 303 301 301 302 304 305 306 308 310 310 310 310 311 311 312 312 312 311 310 310 310 311 311 311 310 310 310 310 310 308 309
298 300 300 301 301 301 301 301 302 303 302 302 300 300 300 301 303 304 305 306 308 308 308 309 309 310 311 310 310 310 310 310 309 309 309 310 310 311 309 309 309 310 308
296 297 297 297 297 297 297 296 296 296 295 294 294 294 298 299 301 303 304 304 306 307 308 308 309 309 309 308 309 309 309 306 302 303 305 307 310 310 311 310 310 310 310
296 296 295 296 296 296 295 294 293 292 291 291 291 291 294 296 297 298 300 302 303 304 305 306 307 307 307 306 307 306 307 306 304 304 303 304 306 308 310 311 311 311 311
295 295 295 295 295 295 294 293 292 291 290 289 289 290 291 292 294 296 298 299 302 303 303 303 302 302 299 298 299 300 302 306 303 301 300 300 301 305 308 312 312 311 311
293 293 293 293 294 293 292 292 291 291 289 288 288 288 288 289 290 291 294 296 296 297 297 295 294 293 293 292 292 293 296 301 302 299 298 298 299 302 305 310 313 313 313
292 292 292 292 292 291 291 290 289 288 288 287 287 287 288 288 288 289 290 290 290 290 289 288 288 288 288 288 289 290 291 296 301 300 300 299 299 301 304 308 312 313 314
291 291 291 291 291 290 289 288 288 287 287 287 287 287 288 288 288 288 289 289 288 287 287 287 286 287 287 287 287 288 289 290 295 300 299 298 298 301 305 308 314 316 315
289 290 289 289 288 288 287 287 287 287 286 286 286 287 288 288 288 288 288 288 287 286 287 287 286 286 285 286 286 287 288 289 291 300 300 298 298 299 301 309 314 317 318
288 288 288 287 287 287 287 287 286 286 286 286 286 286 287 287 287 287 287 287 287 286 286 286 285 285 284 285 285 286 287 288 289 295 300 300 299 301 300 310 315 317 319
287 287 287 287 286 286 286 286 285 285 285 285 285 286 286 286 286 286 286 286 286 285 285 285 285 284 284 284 284 285 286 287 289 291 300 301 299 301 307 312 317 318 319
287 286 286 286 286 285 285 285 285 285 284 284 285 285 284 284 284 284 285 285 285 285 284 284 285 284 284 284 284 285 286 287 288 289 295 301 301 303 307 313 317 318 318
286 286 286 285 285 285 284 284 284 284 284 284 284 284 284 284 284 284 284 285 285 284 284 284 283 283 284 285 286 287 287 287 288 289 290 300 301 304 309 311 313 315 316
285 285 285 285 284 284 284 284 284 284 284 283 283 283 283 283 283 283 284 284 284 284 284 284 284 284 284 286 286 287 288 288 288 289 290 293 300 303 306 307 310 311 312
285 285 284 284 283 283 282 282 282 282 282 282 282 282 283 283 282 283 283 283 283 284 285 285 284 285 285 284 286 287 288 288 289 289 289 289 296 301 305 307 310 311 311

GFSGL_850_thetae_129.txt.gz
Theta_e
331 328 325 323 324 325 324 326 326 320 315 315 316 318 319 319 319 316 318 318 318 319 318 318 317 315 315 315 316 316 316 317 317 317 316 315 315 315 315 315 315 314 314
329 328 326 325 325 325 321 318 315 315 318 319 318 318 317 317 317 317 317 317 317 316 316 315 315 316 314 315 315 315 316 315 314 314 314 314 314 314 315 315 314 314 313
326 325 324 322 321 320 315 314 315 315 316 317 317 317 317 316 316 317 316 315 315 315 314 314 314 314 314 314 315 316 315 315 314 312 312 312 313 313 314 314 314 315 314
322 322 322 322 321 320 319 319 319 318 318 317 316 316 316 316 315 315 312 312 312 313 313 313 314 313 313 314 312 312 312 312 311 310 311 311 311 312 313 313 313 313 313
321 321 321 320 319 318 318 317 317 316 316 315 315 315 314 314 313 311 310 308 308 310 312 313 313 313 312 311 311 312 312 311 310 309 310 310 310 310 311 311 311 311 312
317 317 317 316 316 316 315 315 315 315 314 314 313 312 311 312 311 309 307 307 307 309 311 311 312 311 312 311 313 313 312 310 310 310 310 310 310 309 309 309 310 309 310
314 314 313 313 313 313 313 314 313 312 312 312 311 310 309 309 308 307 307 307 307 309 309 310 309 310 312 312 312 313 312 311 310 310 309 308 308 308 307 309 309 309 310
311 311 311 311 311 312 311 310 311 310 309 309 308 308 307 306 306 307 305 306 307 308 308 308 310 309 310 311 312 311 311 309 310 312 311 312 310 310 310 309 309 310 311
309 309 309 310 310 310 309 308 309 308 308 308 307 306 305 305 306 305 305 305 304 304 306 308 306 307 308 309 310 309 311 310 312 312 311 310 308 308 307 308 310 310 310
307 308 308 308 308 307 307 307 306 306 306 305 304 304 304 302 304 304 305 305 305 307 303 303 305 305 307 309 310 308 309 309 310 309 309 309 306 305 307 307 309 309 309
306 307 307 306 306 306 304 304 304 305 306 305 304 303 301 299 300 303 304 305 306 306 301 303 305 306 307 307 307 305 304 305 303 304 306 306 306 303 301 304 308 308 309
306 306 305 305 304 304 304 303 303 303 303 303 303 302 300 299 298 301 303 303 303 304 305 305 305 306 305 304 304 303 301 300 300 302 305 304 306 304 304 304 306 310 311
305 305 304 303 303 302 302 300 299 298 299 300 300 301 300 299 296 298 300 302 302 302 303 303 302 303 301 300 299 299 300 299 299 298 298 302 301 300 301 303 305 307 310
304 303 302 303 302 300 299 298 293 292 294 294 295 297 297 294 291 293 296 298 297 298 300 299 299 299 298 297 297 297 298 297 297 297 296 299 299 299 300 300 304 308 310
303 303 303 302 302 301 298 296 294 290 289 289 290 292 290 289 289 290 290 291 292 295 296 297 297 296 295 296 296 296 296 295 296 296 295 297 298 297 298 299 301 304 304
301 300 301 301 300 299 299 297 295 293 292 289 289 288 289 288 289 290 290 291 292 293 295 295 294 294 294 294 294 294 294 294 294 294 294 297 294 292 294 298 299 301 304
300 300 299 299 298 298 297 297 297 295 294 292 290 289 289 289 289 290 291 292 291 292 293 293 293 293 293 293 294 293 293 293 293 292 293 296 293 292 293 296 300 301 306
297 297 298 297 297 296 296 295 295 294 294 293 291 289 289 290 290 290 291 292 292 292 292 292 292 292 292 292 293 293 293 292 292 291 295 296 294 292 294 296 298 301 307
297 297 296 294 294 294 294 294 294 294 294 293 291 290 290 291 291 291 291 292 292 292 292 292 292 292 292 292 292 292 292 291 290 290 292 296 294 293 294 297 299 304 310
292 293 294 294 294 294 294 294 293 293 293 293 292 289 290 292 292 292 291 291 291 291 291 291 291 291 291 291 291 291 291 290 289 289 289 296 295 293 296 299 300 306 312
293 293 293 293 293 293 293 293 293 292 292 292 292 290 290 291 291 291 291 291 291 291 291 291 291 291 291 291 290 289 289 288 288 289 288 292 297 295 298 300 303 305 310
294 293 293 293 292 292 292 292 292 292 292 291 291 291 290 291 291 291 291 291 290 290 290 290 290 290 290 290 289 288 288 286 288 288 289 290 292 295 298 300 301 303 306
293 293 293 292 292 292 292 292 291 291 291 291 291 291 290 290 290 290 290 290 290 290 289 289 289 289 289 289 288 286 286 286 287 287 289 290 291 291 298 300 301 303 306
293 292 292 291 291 291 291 291 291 290 290 290 290 290 290 290 290 289 289 289 289 289 289 289 289 288 288 289 287 285 285 286 286 288 289 290 290 290 294 298 299 301 304
292 292 291 291 290 290 290 290 290 289 289 289 289 289 289 289 288 288 288 288 288 288 288 288 288 288 288 288 286 284 285 286 287 287 289 289 290 290 290 297 298 301 303
291 291 291 290 290 290 290 289 289 288 288 288 289 288 288 288 287 287 287 287 287 287 287 287 287 287 286 286 285 283 285 286 287 288 288 289 289 289 288 292 297 300 301

GFSGL_850_thetae_132.txt.gz
Theta_e
336 333 331 328 325 325 325 326 327 326 325 319 316 316 319 320 319 317 315 317 319 319 318 316 316 316 315 316 315 314 315 315 316 315 315 314 314 314 315 315 315 315 315
331 328 327 324 324 324 325 324 320 316 317 319 319 319 318 316 317 316 317 318 317 316 315 314 314 314 314 314 314 314 315 314 314 314 313 313 313 314 313 313 313 313 314
328 327 326 325 324 322 318 317 317 316 316 316 317 318 317 317 317 317 316 315 314 314 313 313 313 313 313 313 313 313 313 314 312 311 311 311 311 312 311 313 312 312 312
326 324 323 322 321 321 321 321 320 320 319 318 317 316 316 316 316 315 315 314 311 309 310 311 312 313 312 312 312 312 311 312 311 310 310 311 310 312 310 310 310 310 310
323 323 322 321 321 320 319 318 317 317 317 316 316 316 315 315 314 312 312 310 308 307 308 311 312 312 311 312 311 311 312 311 311 310 310 310 310 310 309 308 307 309 311
320 319 319 318 317 317 317 316 316 316 316 315 315 314 312 312 310 310 308 308 307 307 309 309 310 310 310 310 311 310 310 311 311 310 310 309 308 307 305 305 306 307 306
317 316 315 315 314 315 315 315 314 313 311 311 311 311 311 309 308 307 307 306 306 308 308 309 308 309 309 310 310 311 310 310 310 310 309 307 306 304 303 305 305 306 308
313 313 313 313 314 312 310 308 309 310 309 309 309 308 308 306 306 306 306 305 305 306 307 307 306 306 307 309 310 311 310 309 309 308 307 305 304 303 303 303 304 305 306
311 312 312 311 311 310 307 309 309 308 308 307 307 305 305 304 305 305 305 305 304 304 305 305 305 306 307 308 309 308 308 307 306 307 305 306 304 302 301 301 302 301 302
310 310 310 309 308 307 306 306 307 306 305 305 305 303 303 302 302 303 305 305 306 306 305 303 303 305 306 306 307 305 304 304 304 304 303 306 304 303 302 299 298 298 299
307 307 305 306 305 304 304 304 304 304 304 303 303 302 301 300 299 300 302 304 304 305 305 305 304 305 304 304 302 300 300 300 300 299 299 300 302 302 301 300 299 296 297
306 305 306 305 304 304 303 302 301 302 304 303 303 302 300 299 298 297 299 301 302 302 302 301 300 299 298 298 297 297 298 298 297 298 298 297 299 300 301 299 300 300 299
306 305 304 304 303 302 300 298 296 297 298 298 299 300 298 297 294 292 297 298 296 299 299 299 298 298 297 296 296 296 296 295 295 296 296 294 298 299 299 301 302 304 306
304 304 304 303 301 299 297 293 291 292 293 293 294 294 292 290 290 290 291 293 295 296 297 296 296 295 295 295 295 295 294 294 294 294 294 296 298 297 296 296 300 304 308
304 304 303 303 302 300 297 295 292 291 290 290 290 290 289 289 290 291 291 292 294 295 295 294 294 294 294 294 294 294 293 294 293 293 291 297 296 294 295 297 298 301 301
302 302 302 301 301 300 299 297 295 294 292 290 289 289 290 290 291 291 292 292 292 293 293 293 293 293 293 293 293 293 292 293 291 291 292 297 295 293 294 298 297 298 302
301 300 300 299 299 298 298 298 296 295 294 292 290 290 291 291 291 292 292 293 292 292 292 292 292 292 292 292 292 292 292 291 289 289 291 296 294 293 292 294 296 299 305
299 299 298 298 297 297 296 296 296 296 295 293 291 291 292 292 292 292 292 292 292 292 292 292 292 292 292 292 291 291 291 290 288 289 290 293 296 293 293 293 295 298 302
298 297 296 295 296 296 296 295 295 295 295 294 291 291 292 292 292 292 292 292 292 292 292 292 291 291 291 291 290 289 289 288 287 289 289 291 296 294 294 294 296 299 303
296 296 296 296 295 295 295 295 294 294 294 294 291 291 292 292 292 292 291 291 291 291 291 291 291 291 291 291 290 288 288 287 288 288 290 291 292 293 293 295 299 299 303
295 294 295 295 295 294 294 294 293 293 293 292 292 291 292 292 292 291 291 291 291 291 290 291 291 290 290 290 289 287 287 286 287 288 289 290 291 291 292 296 298 299 302
295 294 294 294 293 294 293 293 293 293 292 292 292 291 291 291 291 291 290 290 290 290 290 290 290 289 289 289 289 285 285 286 287 288 289 290 290 291 290 296 297 299 302
294 294 294 294 293 294 293 293 292 292 292 291 291 291 291 291 290 290 290 289 289 289 289 289 289 289 288 288 288 284 284 285 286 287 288 289 290 289 289 294 295 298 300
294 294 293 292 292 291 292 292 291 291 291 291 290 290 290 290 289 290 289 288 288 288 288 288 288 288 287 287 286 284 283 285 286 287 288 289 289 288 288 291 292 297 298
293 293 292 292 291 291 291 291 290 290 290 290 290 289 290 289 288 289 288 287 287 287 287 287 287 287 286 286 285 283 284 285 286 287 288 288 288 288 288 289 290 296 298
293 292 292 292 291 291 291 291 290 289 290 289 289 289 289 288 288 288 287 286 286 286 286 286 286 286 286 285 285 283 283 284 285 286 287 287 287 287 287 288 288 294 297

GFSGL_850_thetae_135.txt.gz
Theta_e
343 341 340 339 337 333 329 326 326 325 325 323 319 318 318 319 318 317 315 316 319 319 318 316 314 314 314 314 313 313 313 314 314 313 314 314 313 314 314 313 312 312 312
339 337 336 332 328 325 325 325 324 322 317 317 318 319 318 316 315 315 316 317 316 315 312 312 313 313 312 313 312 312 312 312 311 312 312 313 312 311 311 312 311 311 311
334 329 326 325 325 325 324 321 318 317 317 317 316 316 316 316 316 316 316 316 315 314 311 310 312 312 312 312 312 311 311 311 311 309 312 312 312 310 310 309 309 309 309
327 325 324 324 322 319 317 316 317 318 318 317 317 315 316 316 316 316 315 313 312 310 308 308 310 311 312 311 311 310 311 310 310 310 310 310 310 309 308 307 310 309 310
324 322 321 320 320 320 320 320 319 318 317 316 316 315 315 315 314 313 311 309 308 308 308 309 310 310 310 310 309 309 309 310 310 309 309 308 308 307 305 304 304 306 307
322 321 321 320 320 319 317 317 317 316 316 315 315 315 313 311 310 308 308 308 307 307 308 308 308 308 308 308 308 308 309 309 309 307 307 306 305 304 304 303 303 303 303
320 319 318 317 315 315 315 315 315 314 312 310 309 309 308 307 308 308 307 307 306 306 306 307 307 306 306 307 308 308 309 308 307 306 304 302 302 303 303 303 302 302 302
315 314 314 314 314 314 312 309 309 308 309 308 307 306 306 306 306 306 305 306 305 305 304 304 304 304 305 306 307 306 304 303 303 302 302 300 301 302 302 301 302 301 302
313 313 313 312 310 306 305 307 308 308 306 306 305 304 303 303 303 304 305 305 305 305 305 305 305 305 305 305 303 302 301 302 301 300 299 299 300 303 303 303 301 297 298
311 311 310 308 305 303 304 305 305 304 303 303 302 301 300 299 300 299 301 304 304 305 304 303 302 301 299 299 299 297 298 299 298 297 298 299 301 303 302 298 294 293 293
309 306 305 302 303 303 303 304 303 304 303 304 302 300 299 299 298 294 298 301 302 302 300 299 299 298 297 296 296 296 296 295 295 295 296 297 301 301 300 297 294 292 294
305 304 303 303 303 302 302 302 301 302 300 304 301 299 297 297 292 293 297 297 298 299 298 297 296 296 296 295 295 295 294 293 292 292 294 298 299 299 297 297 298 297 298
303 303 303 302 300 297 295 295 301 300 300 299 298 298 296 290 291 292 294 295 296 296 295 295 295 294 294 294 294 293 293 291 290 291 294 298 297 297 299 300 302 302 304
304 303 302 301 298 295 292 292 292 292 292 293 291 291 290 291 291 291 293 295 295 295 294 294 293 293 293 293 293 292 292 290 289 290 293 298 298 299 297 298 302 306 308
303 302 302 301 299 297 294 293 291 290 290 290 290 290 290 291 292 292 292 292 293 292 292 292 292 292 292 292 292 291 290 289 289 290 291 298 298 298 297 297 298 299 299
304 303 302 300 299 298 296 295 294 293 290 290 291 291 291 291 292 292 292 292 292 292 292 292 292 291 292 291 290 290 289 288 288 290 291 296 297 296 296 297 296 296 299
301 300 299 298 298 297 296 296 295 294 292 290 292 292 292 292 292 292 292 292 292 292 292 291 291 291 291 291 289 288 287 287 288 289 290 291 296 297 295 294 296 296 303
299 298 297 297 297 296 296 295 295 294 293 290 292 292 292 292 292 291 292 292 291 291 292 291 291 290 291 291 289 287 287 288 288 289 290 290 291 294 294 294 295 294 298
298 298 297 296 296 295 295 295 294 294 294 291 292 292 292 292 291 291 291 291 290 291 291 290 290 290 290 290 289 286 286 287 288 288 289 290 290 290 293 294 294 295 296
296 296 295 295 295 295 294 294 294 293 293 292 292 292 291 291 291 291 290 290 290 290 290 290 289 289 290 289 287 285 286 287 287 288 289 289 289 289 290 293 296 294 297
295 295 295 294 294 294 293 293 293 292 292 292 291 291 291 291 290 290 290 290 290 289 289 289 289 288 288 288 287 285 285 286 287 287 288 288 289 288 288 291 295 295 296
294 294 293 294 293 293 293 293 292 292 292 291 291 291 290 290 290 289 289 289 289 288 289 288 288 287 287 287 286 284 284 285 286 287 287 288 288 288 288 289 294 296 297
294 294 293 293 293 293 292 291 291 291 291 291 290 290 290 289 289 289 288 287 288 287 287 287 287 286 286 286 285 284 284 284 285 286 287 287 288 287 287 288 290 295 296
293 293 293 292 292 291 291 291 290 290 290 290 290 289 289 289 288 288 288 287 287 286 286 286 286 286 286 285 285 284 284 284 284 286 286 287 287 287 288 288 288 294 296
293 292 292 292 291 291 291 290 290 290 289 289 289 289 289 288 287 287 287 286 286 286 286 286 286 286 286 285 284 284 284 284 284 285 286 287 287 287 287 288 288 292 296
292 292 291 291 291 291 290 290 290 289 289 289 289 288 288 287 287 287 286 286 285 285 285 285 285 285 285 284 284 283 284 284 284 284 285 287 287 287 287 287 288 289 293